Date String (YYYY-MM-DD hh:mm:ss) UTC,Instrument flags,absolute air pressure of the measurement (hPa),sample flow rate (lpm),inlet stack bypass flow (lpm),air temperature of the measurement (°C),ambient temperature measured by the external sensor (°C),aerosol sample conditioner tube jacket temperature (°C),OPC LED temperature (°C),internal box temperature (°C),relative humidity of the measurement (%),span deviation,mass concentration of particles derived from Lorenz-Mie calculation of OPC scattering (μg/m³),mass concentration of particles derived from Lorenz-Mie calculation of OPC scattering (μg/m³),mass concentration of particles derived from Lorenz-Mie calculation of OPC scattering (μg/m³)
DateTimeUTC,F1_M11,P_M11,Q1_M11,Q2_M11,T1_M11,T2_M11,T3_M11,T4_M11,T5_M11,U1_M11,ZSPAN_M11,X2_M11,X0_M11,X1_M11
2024-03-02 05:00:00,SystemResetWarning,0821.3,5.00,000.00,023.6,022.7,000.0,032.2,025.4,09.2,0000.0,0002.03,0004.12,0001.14
2024-03-02 05:01:00,SystemResetWarning,0821.3,5.00,000.00,023.6,022.7,000.0,032.2,025.4,09.3,0000.0,0002.01,0004.20,0001.13
2024-03-02 05:02:00,SystemResetWarning,0821.4,5.01,000.00,023.6,022.6,000.0,032.2,025.4,09.3,0000.0,0001.93,0004.97,0001.12
2024-03-02 05:03:00,SystemResetWarning,0821.4,5.00,000.00,023.6,022.6,000.0,032.2,025.3,09.3,0000.0,0001.88,0004.91,0001.11
2024-03-02 05:04:00,SystemResetWarning,0821.4,4.99,000.00,023.6,022.6,000.0,032.2,025.3,09.3,0000.0,0001.88,0004.95,0001.11
2024-03-02 05:05:00,SystemResetWarning,0821.3,5.00,000.00,023.6,022.6,000.0,032.1,025.3,09.4,0000.0,0001.87,0005.29,0001.11
2024-03-02 05:06:00,SystemResetWarning,0821.3,5.00,000.00,023.5,022.6,000.0,032.1,025.3,09.4,0000.0,0001.87,0005.48,0001.12
2024-03-02 05:07:00,SystemResetWarning,0821.3,4.99,000.00,023.5,022.6,000.0,032.1,025.2,09.5,0000.0,0001.91,0005.56,0001.11
2024-03-02 05:08:00,SystemResetWarning,0821.3,5.00,000.00,023.5,022.6,000.0,032.1,025.2,09.5,0000.0,0001.95,0005.66,0001.11
2024-03-02 05:09:00,SystemResetWarning,0821.4,5.01,000.00,023.5,022.5,000.0,032.1,025.2,09.5,0000.0,0001.92,0005.57,0001.10
2024-03-02 05:10:00,SystemResetWarning,0821.3,5.00,000.00,023.5,022.5,000.0,032.1,025.2,09.6,0000.0,0001.93,0005.66,0001.09
2024-03-02 05:11:00,SystemResetWarning,0821.3,5.00,000.00,023.5,022.5,000.0,032.1,025.2,09.7,0000.0,0001.90,0005.54,0001.08
2024-03-02 05:12:00,SystemResetWarning,0821.3,5.00,000.00,023.5,022.5,000.0,032.0,025.1,09.6,0000.0,0001.94,0005.59,0001.11
2024-03-02 05:13:00,SystemResetWarning,0821.3,5.00,000.00,023.4,022.5,000.0,032.0,025.1,09.6,0000.0,0002.00,0004.60,0001.12
2024-03-02 05:14:00,SystemResetWarning,0821.3,5.00,000.00,023.4,022.5,000.0,032.0,025.1,09.5,0000.0,0002.04,0004.63,0001.13
2024-03-02 05:15:00,SystemResetWarning,0821.3,4.99,000.00,023.4,022.5,000.0,032.0,025.1,09.4,0000.0,0002.02,0004.56,0001.11
2024-03-02 05:16:00,SystemResetWarning,0821.3,4.99,000.00,023.4,022.5,000.0,032.0,025.1,09.4,0000.0,0002.04,0004.23,0001.12
2024-03-02 05:17:00,SystemResetWarning,0821.3,5.00,000.00,023.4,022.5,000.0,032.0,025.1,09.3,0000.0,0002.07,0004.06,0001.12
2024-03-02 05:18:00,SystemResetWarning,0821.3,5.02,000.00,023.4,022.5,000.0,032.0,025.1,09.2,0000.0,0002.03,0003.93,0001.12
2024-03-02 05:19:00,SystemResetWarning,0821.3,5.01,000.00,023.4,022.4,000.0,031.9,025.0,09.1,0000.0,0002.01,0003.79,0001.12
2024-03-02 05:20:00,SystemResetWarning,0821.3,5.00,000.00,023.3,022.4,000.0,031.9,025.0,09.2,0000.0,0002.03,0003.84,0001.12
2024-03-02 05:21:00,SystemResetWarning,0821.2,4.99,000.00,023.3,022.4,000.0,031.9,025.0,09.2,0000.0,0001.98,0004.49,0001.12
2024-03-02 05:22:00,SystemResetWarning,0821.2,4.99,000.00,023.3,022.4,000.0,031.9,025.0,09.2,0000.0,0001.99,0004.57,0001.13
2024-03-02 05:23:00,SystemResetWarning,0821.2,4.99,000.00,023.3,022.4,000.0,031.9,025.0,09.1,0000.0,0001.97,0004.56,0001.12
2024-03-02 05:24:00,SystemResetWarning,0821.2,5.00,000.00,023.3,022.4,000.0,031.9,025.0,09.1,0000.0,0001.95,0004.51,0001.13
2024-03-02 05:25:00,SystemResetWarning,0821.2,5.01,000.00,023.3,022.4,000.0,031.9,025.0,09.4,0000.0,0001.99,0004.79,0001.13
2024-03-02 05:26:00,SystemResetWarning,0821.2,5.00,000.00,023.3,022.3,000.0,031.8,025.0,09.6,0000.0,0001.99,0005.39,0001.14
2024-03-02 05:27:00,SystemResetWarning,0821.2,5.00,000.00,023.2,022.3,000.0,031.8,025.0,09.4,0000.0,0001.98,0005.58,0001.14
2024-03-02 05:28:00,SystemResetWarning,0821.2,4.98,000.00,023.2,022.3,000.0,031.8,025.0,09.3,0000.0,0001.97,0005.58,0001.15
2024-03-02 05:29:00,SystemResetWarning,0821.2,5.01,000.00,023.2,022.3,000.0,031.8,025.0,09.4,0000.0,0001.96,0006.60,0001.15
2024-03-02 05:30:00,SystemResetWarning,0821.3,5.01,000.00,023.2,022.3,000.0,031.8,025.0,09.2,0000.0,0001.92,0007.65,0001.15
2024-03-02 05:31:00,SystemResetWarning,0821.3,5.00,000.00,023.2,022.3,000.0,031.8,025.0,09.0,0000.0,0001.90,0007.68,0001.14
2024-03-02 05:32:00,SystemResetWarning,0821.1,4.99,000.00,023.2,022.3,000.0,031.8,024.9,08.9,0000.0,0001.93,0007.39,0001.15
2024-03-02 05:33:00,SystemResetWarning,0821.2,4.99,000.00,023.2,022.3,000.0,031.8,024.9,08.9,0000.0,0001.97,0007.36,0001.14
2024-03-02 05:34:00,SystemResetWarning,0821.0,5.00,000.00,023.2,022.3,000.0,031.8,024.9,09.0,0000.0,0002.02,0007.48,0001.14
2024-03-02 05:35:00,SystemResetWarning,0821.1,5.01,000.00,023.2,022.3,000.0,031.7,025.0,09.0,0000.0,0002.00,0007.44,0001.12
2024-03-02 05:36:00,SystemResetWarning,0821.1,5.00,000.00,023.2,022.3,000.0,031.7,025.0,09.1,0000.0,0001.97,0007.34,0001.10
2024-03-02 05:37:00,SystemResetWarning,0821.1,5.01,000.00,023.2,022.3,000.0,031.7,025.0,09.1,0000.0,0001.92,0006.70,0001.09
2024-03-02 05:38:00,SystemResetWarning,0821.2,5.00,000.00,023.2,022.3,000.0,031.7,025.0,09.0,0000.0,0001.91,0006.42,0001.09
2024-03-02 05:39:00,SystemResetWarning,0821.2,5.00,000.00,023.2,022.3,000.0,031.7,025.0,09.0,0000.0,0001.90,0006.47,0001.07
2024-03-02 05:40:00,SystemResetWarning,0821.3,4.99,000.00,023.2,022.3,000.0,031.7,025.0,09.0,0000.0,0001.89,0005.53,0001.07
2024-03-02 05:41:00,SystemResetWarning,0821.1,5.00,000.00,023.2,022.3,000.0,031.7,025.0,09.0,0000.0,0001.94,0004.27,0001.09
2024-03-02 05:42:00,SystemResetWarning,0821.0,5.00,000.00,023.2,022.3,000.0,031.7,025.0,09.0,0000.0,0002.01,0004.42,0001.09
2024-03-02 05:43:00,SystemResetWarning,0821.1,5.00,000.00,023.2,022.3,000.0,031.7,025.0,09.0,0000.0,0002.00,0004.37,0001.10
2024-03-02 05:44:00,SystemResetWarning,0821.0,5.01,000.00,023.2,022.3,000.0,031.7,025.0,09.1,0000.0,0001.99,0004.29,0001.11
2024-03-02 05:45:00,SystemResetWarning,0821.2,5.00,000.00,023.2,022.3,000.0,031.7,025.0,09.1,0000.0,0001.92,0004.04,0001.11
2024-03-02 05:46:00,SystemResetWarning,0821.2,5.01,000.00,023.2,022.3,000.0,031.7,025.0,09.1,0000.0,0001.90,0004.02,0001.11
2024-03-02 05:47:00,SystemResetWarning,0821.1,5.00,000.00,023.2,022.3,000.0,031.7,025.0,09.4,0000.0,0001.88,0003.96,0001.11
2024-03-02 05:48:00,SystemResetWarning,0821.2,4.98,000.00,023.2,022.3,000.0,031.7,025.0,09.4,0000.0,0001.86,0003.86,0001.11
2024-03-02 05:49:00,SystemResetWarning,0821.0,5.00,000.00,023.2,022.3,000.0,031.7,025.0,09.3,0000.0,0001.84,0004.23,0001.10
2024-03-02 05:50:00,SystemResetWarning,0821.0,5.00,000.00,023.2,022.3,000.0,031.7,025.0,09.1,0000.0,0001.83,0004.31,0001.10
2024-03-02 05:51:00,SystemResetWarning,0821.1,5.01,000.00,023.2,022.3,000.0,031.7,025.0,09.1,0000.0,0001.84,0004.13,0001.12
2024-03-02 05:52:00,SystemResetWarning,0821.1,5.00,000.00,023.2,022.3,000.0,031.7,025.0,09.2,0000.0,0001.84,0004.11,0001.12
2024-03-02 05:53:00,SystemResetWarning,0821.1,5.00,000.00,023.2,022.3,000.0,031.7,025.0,09.3,0000.0,0001.79,0003.88,0001.11
2024-03-02 05:54:00,SystemResetWarning,0821.1,5.00,000.00,023.2,022.3,000.0,031.7,025.0,09.2,0000.0,0001.79,0003.80,0001.10
2024-03-02 05:55:00,SystemResetWarning,0821.1,5.00,000.00,023.2,022.3,000.0,031.7,025.0,09.2,0000.0,0001.77,0003.70,0001.10
2024-03-02 05:56:00,SystemResetWarning,0821.1,5.00,000.00,023.2,022.3,000.0,031.7,025.0,09.2,0000.0,0001.77,0003.75,0001.10
2024-03-02 05:57:00,SystemResetWarning,0821.0,5.00,000.00,023.2,022.3,000.0,031.7,025.0,09.3,0000.0,0001.74,0005.29,0001.09
2024-03-02 05:58:00,SystemResetWarning,0821.3,5.00,000.00,023.2,022.3,000.0,031.7,025.0,09.2,0000.0,0001.74,0005.49,0001.10
2024-03-02 05:59:00,SystemResetWarning,0821.3,5.00,000.00,023.2,022.3,000.0,031.7,025.0,09.2,0000.0,0001.80,0005.88,0001.11
